Location: Newark
(43.0000°N, 1.6781°W)
Time: 23:06:29
(UTC+00:00)

Vanguard 1 Rocket - Pass Details

Date: 27 April 2021
Orbit: 652 x 4224 km, 34.3° (Epoch: 10 May)

Event Time Altitude Azimuth Distance (km) Brightness Sun altitude
Rises 16:22:37 0° 261° (W) 3,203 11.5 28.1°
Reaches altitude 10° 16:26:32 10° 230° (SW) 2,075 10.3 27.3°
Maximum altitude 16:28:21 12° 206° (SSW) 1,899 9.6 27.0°
Drops below altitude 10° 16:30:09 10° 181° (S) 2,057 9.4 26.7°
Sets 16:34:00 0° 149° (SSE) 3,140 9.9 26.0°
